When you browse on this site, cookies collect data to enhance your experience and personalize the content and advertising you see.
Visit our Privacy Policy to learn more. By continuing to use the site, you agree to this use of cookies and data.
  • In Romania
  • List of Countries
  • For 7 days
  • Water Temperature
  • Weather Map
  • Weather Widgets
  • user-avatar
    Login

    Hourly Weather Barra

    Today, 15 October, Tuesday

    Time Temperature Precipitation Wind Pressure Humidity
    00:00 +20°C° 0 mm 2 mps 750 mmHg 88%
    01:00 +20°C° 0 mm 2 mps 750 mmHg 89%
    02:00 +19°C° 0 mm 2 mps 750 mmHg 90%
    03:00 +19°C° 0 mm 2 mps 750 mmHg 91%
    04:00 +19°C° 0 mm 2 mps 749 mmHg 92%
    05:00 +20°C° 0 mm 2 mps 750 mmHg 88%
    06:00 +20°C° 0 mm 2 mps 750 mmHg 84%
    07:00 +21°C° 0 mm 2 mps 750 mmHg 80%
    08:00 +25°C° 0 mm 2 mps 750 mmHg 66%
    09:00 +28°C° 0 mm 2 mps 750 mmHg 51%
    10:00 +32°C° 0 mm 2 mps 750 mmHg 37%
    11:00 +32°C° 0 mm 2 mps 750 mmHg 38%
    12:00 +33°C° 0 mm 3 mps 749 mmHg 40%
    13:00 +33°C° 0 mm 4 mps 748 mmHg 41%
    14:00 +32°C° 0 mm 4 mps 748 mmHg 44%
    15:00 +30°C° 0 mm 4 mps 747 mmHg 48%
    16:00 +30°C° 0 mm 4 mps 747 mmHg 51%
    17:00 +27°C° 0 mm 3 mps 747 mmHg 61%
    18:00 +25°C° 0 mm 3 mps 747 mmHg 71%
    19:00 +23°C° 0 mm 2 mps 748 mmHg 81%
    20:00 +21°C° 0 mm 2 mps 748 mmHg 84%
    21:00 +21°C° 0 mm 2 mps 748 mmHg 87%
    22:00 +20°C° 0 mm 2 mps 749 mmHg 90%
    23:00 +20°C° 0 mm 2 mps 748 mmHg 91%

    Tomorrow, 16 October, Wednesday

    Time Temperature Precipitation Wind Pressure Humidity
    00:00 +20°C° 0 mm 2 mps 748 mmHg 91%
    01:00 +19°C° 0 mm 2 mps 748 mmHg 92%
    02:00 +19°C° 0 mm 2 mps 748 mmHg 92%
    03:00 +19°C° 0 mm 2 mps 748 mmHg 92%
    04:00 +19°C° 0 mm 2 mps 748 mmHg 92%
    05:00 +19°C° 0 mm 2 mps 748 mmHg 86%
    06:00 +20°C° 0 mm 2 mps 749 mmHg 81%
    07:00 +21°C° 0 mm 2 mps 749 mmHg 75%
    08:00 +25°C° 0 mm 3 mps 749 mmHg 62%
    09:00 +29°C° 0 mm 3 mps 750 mmHg 49%
    10:00 +33°C° 0 mm 3 mps 750 mmHg 36%
    11:00 +33°C° 0 mm 3 mps 749 mmHg 40%
    12:00 +33°C° 0 mm 4 mps 748 mmHg 43%
    13:00 +33°C° 0 mm 4 mps 747 mmHg 47%
    14:00 +32°C° 0 mm 4 mps 747 mmHg 51%
    15:00 +30°C° 0 mm 4 mps 747 mmHg 55%
    16:00 +29°C° 0 mm 4 mps 747 mmHg 59%
    17:00 +27°C° 0 mm 4 mps 747 mmHg 68%
    18:00 +26°C° 0 mm 3 mps 748 mmHg 77%
    19:00 +24°C° 0 mm 3 mps 748 mmHg 85%
    20:00 +22°C° 0 mm 3 mps 749 mmHg 88%
    21:00 +22°C° 0 mm 3 mps 749 mmHg 91%
    22:00 +21°C° 0 mm 3 mps 750 mmHg 94%
    23:00 +21°C° 0 mm 3 mps 749 mmHg 94%

    Day after tomorrow, 17 October, Thursday

    Time Temperature Precipitation Wind Pressure Humidity
    00:00 +21°C° 0 mm 3 mps 749 mmHg 93%
    01:00 +21°C° 0 mm 3 mps 749 mmHg 93%
    02:00 +21°C° 0 mm 2 mps 749 mmHg 94%
    03:00 +21°C° 0 mm 2 mps 748 mmHg 94%
    04:00 +21°C° 0 mm 2 mps 748 mmHg 95%
    05:00 +21°C° 0 mm 2 mps 749 mmHg 92%
    06:00 +23°C° 0 mm 2 mps 749 mmHg 88%
    07:00 +23°C° 0 mm 2 mps 750 mmHg 85%
    08:00 +26°C° 0 mm 2 mps 750 mmHg 74%
    09:00 +28°C° 0 mm 3 mps 750 mmHg 64%
    10:00 +30°C° 0 mm 3 mps 750 mmHg 54%
    11:00 +30°C° 0 mm 3 mps 750 mmHg 54%
    12:00 +31°C° 0 mm 3 mps 749 mmHg 54%
    13:00 +32°C° 0 mm 4 mps 749 mmHg 53%
    14:00 +30°C° 0 mm 4 mps 748 mmHg 56%
    15:00 +30°C° 0 mm 4 mps 748 mmHg 59%
    16:00 +29°C° 0 mm 4 mps 748 mmHg 61%
    17:00 +27°C° 0 mm 4 mps 748 mmHg 69%
    18:00 +26°C° 0 mm 4 mps 749 mmHg 76%
    19:00 +24°C° 0 mm 3 mps 749 mmHg 84%
    20:00 +24°C° 0 mm 3 mps 749 mmHg 87%
    21:00 +22°C° 0 mm 3 mps 750 mmHg 90%
    22:00 +23°C° 0 mm 2 mps 750 mmHg 93%
    23:00 +21°C° 0 mm 2 mps 750 mmHg 93%

    18 October, Friday

    Time Temperature Precipitation Wind Pressure Humidity
    00:00 +21°C° 0 mm 2 mps 749 mmHg 94%
    01:00 +21°C° 0 mm 2 mps 749 mmHg 94%
    02:00 +21°C° 0 mm 2 mps 749 mmHg 94%
    03:00 +21°C° 0 mm 2 mps 749 mmHg 94%
    04:00 +22°C° 0 mm 1 mps 749 mmHg 93%
    05:00 +23°C° 0 mm 1 mps 750 mmHg 90%
    06:00 +23°C° 0 mm 1 mps 751 mmHg 87%
    07:00 +24°C° 0 mm 1 mps 751 mmHg 83%
    08:00 +26°C° 0 mm 1 mps 751 mmHg 75%
    09:00 +28°C° 0 mm 1 mps 752 mmHg 66%
    10:00 +29°C° 0 mm 2 mps 752 mmHg 58%
    11:00 +30°C° 0 mm 2 mps 751 mmHg 55%
    12:00 +31°C° 0 mm 3 mps 751 mmHg 53%
    13:00 +31°C° 0 mm 3 mps 750 mmHg 50%
    14:00 +31°C° 0 mm 3 mps 749 mmHg 53%
    15:00 +30°C° 0 mm 3 mps 749 mmHg 55%
    16:00 +29°C° 0 mm 3 mps 748 mmHg 58%
    17:00 +27°C° 0 mm 3 mps 749 mmHg 66%
    18:00 +25°C° 0 mm 2 mps 749 mmHg 75%
    19:00 +24°C° 0 mm 2 mps 750 mmHg 83%
    20:00 +23°C° 0 mm 2 mps 750 mmHg 86%
    21:00 +23°C° 0 mm 2 mps 751 mmHg 89%
    22:00 +22°C° 0 mm 1 mps 751 mmHg 92%
    23:00 +22°C° 0 mm 1 mps 751 mmHg 92%

    19 October, Saturday

    Time Temperature Precipitation Wind Pressure Humidity
    00:00 +22°C° 0 mm 1 mps 750 mmHg 93%
    01:00 +20°C° 0 mm 2 mps 750 mmHg 94%
    02:00 +21°C° 0 mm 1 mps 750 mmHg 94%
    03:00 +21°C° 0 mm 1 mps 750 mmHg 95%
    04:00 +21°C° 0 mm 1 mps 750 mmHg 95%
    05:00 +22°C° 0 mm 1 mps 750 mmHg 92%
    06:00 +22°C° 0 mm 1 mps 751 mmHg 88%
    07:00 +23°C° 0 mm 1 mps 752 mmHg 85%
    08:00 +26°C° 0 mm 1 mps 752 mmHg 72%
    09:00 +29°C° 0 mm 1 mps 752 mmHg 59%
    10:00 +32°C° 0 mm 1 mps 752 mmHg 46%
    11:00 +32°C° 0 mm 2 mps 751 mmHg 46%
    12:00 +32°C° 0 mm 2 mps 751 mmHg 47%
    13:00 +33°C° 0 mm 3 mps 750 mmHg 47%
    14:00 +31°C° 0 mm 3 mps 750 mmHg 51%
    15:00 +30°C° 0 mm 3 mps 749 mmHg 54%
    16:00 +29°C° 0 mm 3 mps 748 mmHg 58%
    17:00 +28°C° 0 mm 3 mps 749 mmHg 66%
    18:00 +26°C° 0 mm 3 mps 749 mmHg 74%
    19:00 +24°C° 0 mm 2 mps 749 mmHg 83%
    20:00 +23°C° 0 mm 2 mps 750 mmHg 86%
    21:00 +23°C° 0 mm 2 mps 750 mmHg 89%
    22:00 +21°C° 0 mm 2 mps 751 mmHg 93%
    23:00 +22°C° 0 mm 1 mps 751 mmHg 93%

    20 October, Sunday

    Time Temperature Precipitation Wind Pressure Humidity
    00:00 +21°C° 0 mm 1 mps 750 mmHg 94%
    01:00 +21°C° 0 mm 1 mps 750 mmHg 94%
    02:00 +21°C° 0 mm 1 mps 750 mmHg 95%
    03:00 +20°C° 0 mm 1 mps 750 mmHg 95%
    04:00 +20°C° 0 mm 1 mps 750 mmHg 96%
    05:00 +21°C° 0 mm 1 mps 750 mmHg 91%
    06:00 +22°C° 0 mm 1 mps 751 mmHg 87%
    07:00 +23°C° 0 mm 1 mps 751 mmHg 82%
    08:00 +25°C° 0 mm 1 mps 751 mmHg 71%
    09:00 +28°C° 0 mm 2 mps 751 mmHg 59%
    10:00 +31°C° 0 mm 2 mps 751 mmHg 48%
    11:00 +31°C° 0 mm 2 mps 751 mmHg 49%
    12:00 +31°C° 0 mm 3 mps 750 mmHg 51%
    13:00 +32°C° 0 mm 4 mps 749 mmHg 53%
    14:00 +30°C° 0 mm 4 mps 749 mmHg 56%
    15:00 +29°C° 0 mm 3 mps 749 mmHg 58%
    16:00 +28°C° 0 mm 3 mps 748 mmHg 61%
    17:00 +27°C° 0 mm 3 mps 749 mmHg 69%
    18:00 +25°C° 0 mm 3 mps 749 mmHg 76%
    19:00 +23°C° 0 mm 2 mps 750 mmHg 84%
    20:00 +23°C° 0 mm 2 mps 750 mmHg 85%
    21:00 +23°C° 0 mm 2 mps 751 mmHg 86%
    22:00 +23°C° 0 mm 2 mps 751 mmHg 86%
    23:00 +23°C° 0 mm 2 mps 751 mmHg 85%
    Show more